Regional Weather Roundup
Issued by NWS

Home | Current Version | Previous Version | Text Only | Print | Product List | Glossary Off
Versions: 1 2 3 4 5 6 7 8 9 10 11 12 13 14 15 16 17 18 19 20 21 22 23 24 25 26 27 28 29 30 31 32 33 34 35 36 37 38 39 40 41 42 43 44 45 46 47 48 49 50

000
ASUS43 KFSD 201102
RWRSD

WEATHER ROUNDUP FOR SOUTH DAKOTA
NATIONAL WEATHER SERVICE SIOUX FALLS SD
500 AM CST THU NOV 20 2014

NOTE: "FAIR" INDICATES FEW OR NO CLOUDS BELOW 12,000 FEET WITH NO
SIGNIFICANT WEATHER AND/OR OBSTRUCTIONS TO VISIBILITY.


SDZ001>005-009-010-012>017-201200-
NORTHWEST AND NORTH CENTRAL SOUTH DAKOTA

CITY           SKY/WX    TMP DP  RH WIND       PRES   REMARKS
BUFFALO          N/A     19  16  88 CALM      29.92F
FAITH            N/A     16  12  84 N3        30.04F
MOBRIDGE       CLOUDY    12   8  84 NW3       30.07S
$$

SDZ012>016-024>037-041>051-057-063-072>074-201200-
SOUTHWEST AND SOUTH CENTRAL SOUTH DAKOTA

CITY           SKY/WX    TMP DP  RH WIND       PRES   REMARKS
RAPID CTY ARPT MOCLDY    12  10  92 CALM      30.00F
PIERRE         CLOUDY    17  11  77 SW5       30.11S WCI  10
CUSTER         PTCLDY    19   9  65 SW6       29.91S WCI  11
ELLSWORTH AFB  CLEAR     16  14  91 SE2       29.99S FOG
PHILIP         CLOUDY    17  14  88 CALM      30.08S
PINE RIDGE     CLOUDY     1  -3  83 CALM      30.00F
WINNER         CLOUDY    19  13  77 CALM      30.11F
$$

SDZ004>011-016>023-039-040-201200-
NORTHEAST SOUTH DAKOTA

CITY           SKY/WX    TMP DP  RH WIND       PRES   REMARKS
ABERDEEN       PTCLDY     7   1  76 NW8       30.11R WCI  -6
WATERTOWN      PTCLDY     5   1  83 W10       30.05S WCI -10
SISSETON         N/A      8   3  80 NW8       30.07S WCI  -4
$$

SDZ017-020-022-023-036>040-048>070-201200-
SOUTHEAST SOUTH DAKOTA

CITY           SKY/WX    TMP DP  RH WIND       PRES   REMARKS
SIOUX FALLS    CLEAR      5   2  87 W7        30.11R WCI  -7
HURON          PTCLDY     2  -2  83 W9        30.13S WCI -13
CHAMBERLAIN    PTCLDY     8   5  88 W3        30.12F
MITCHELL       CLOUDY    14   8  77 W6        30.16R WCI   5
YANKTON        CLOUDY    19  10  68 W10       30.15F WCI   8
$$

ABBREVIATIONS USED IN REMARKS
   TC - TEMPERATURE IN CELSIUS
  WCI - WIND CHILL INDEX
   HX - HEAT INDEX
  VSB - VISIBILITY




USA.gov is the U.S. government's official web portal to all federal, state and local government web resources and services.